Location: College Park
(38.9810°N, 76.9370°W)
Time: 10:58:58
(UTC-05:00)

Amateur Radio Satellites - All Passes

Search period start: 17 December 2017 10:28
Search period end: 18 December 2017 10:28
Location: College Park, 38.9810°N, 76.9370°W

Satellite Date Start Highest point End Downlink Frequencies (MHz)
Time Altitude Azimuth
AIST 2D 17 Dec 10:33:25 10:36:55 81° 76° (ENE) 10:40:28 435.315
nSIGHT-1 17 Dec 10:38:44 10:41:54 55° 324° (NW) 10:45:04 .
EO-88 17 Dec 10:43:44 10:47:06 34° 287° (WNW) 10:50:25 145.990 - 145.960
NANOSAT C BR1 17 Dec 10:47:00 10:50:39 30° 70° (ENE) 10:54:19 145.865
PRISM 17 Dec 10:48:03 10:51:23 23° 264° (W) 10:54:44 437.425
DELFI C3 17 Dec 10:51:08 10:53:30 16° 293° (WNW) 10:55:51 145.870
NO-84 17 Dec 10:59:59 11:01:30 12° 25° (NNE) 11:03:02 435.350 FM
EO-79 17 Dec 11:03:53 11:07:58 55° 74° (ENE) 11:12:04 145.935-145.965
LO-87 17 Dec 11:04:25 11:07:48 41° 99° (E) 11:11:10 145.935 - 145.965
POLYITAN 1 17 Dec 11:27:39 11:31:49 77° 258° (WSW) 11:36:01 437.675
ISS 17 Dec 11:32:05 11:34:55 26° 331° (NNW) 11:37:47 437.550
ESTCUBE 1 17 Dec 11:42:01 11:46:35 86° 107° (ESE) 11:51:06 437.505/2401.250
SPROUT 17 Dec 11:43:55 11:47:00 19° 94° (E) 11:50:06 437.525
DUCHIFAT 1 17 Dec 11:53:53 11:57:54 49° 260° (W) 12:01:57 145.980
QB50P2 17 Dec 11:54:07 11:57:53 33° 262° (W) 12:01:43 145.880/145.840
AO-91 17 Dec 11:58:25 12:02:05 23° 70° (ENE) 12:05:30 145.960
Gurwin Techsat 1B 17 Dec 12:01:21 12:05:17 21° 64° (ENE) 12:09:13 435.225
nSIGHT-1 17 Dec 12:17:02 12:18:40 13° 343° (NNW) 12:20:18 .
BUGSAT 1 17 Dec 12:22:12 12:26:14 76° 76° (ENE) 12:30:15 437.445
NANOSAT C BR1 17 Dec 12:23:16 12:26:21 20° 266° (W) 12:29:27 145.865
Oscar 19 17 Dec 12:33:08 12:38:08 56° 72° (ENE) 12:43:12 437.125/150
NO-84 17 Dec 12:35:40 12:39:22 57° 42° (NE) 12:43:19 435.350 FM
YUBILEINY 17 Dec 12:36:08 12:43:05 25° 68° (ENE) 12:49:56 435.215
LO-87 17 Dec 12:39:47 12:40:47 11° 294° (WNW) 12:41:47 145.935 - 145.965
EO-79 17 Dec 12:42:50 12:44:02 11° 269° (W) 12:45:14 145.935-145.965
VELOX 1 17 Dec 13:01:57 13:06:23 88° 98° (E) 13:10:46 145.980
ISS 17 Dec 13:11:49 13:12:18 10° 351° (N) 13:12:48 437.550
SPROUT 17 Dec 13:19:09 13:22:56 32° 289° (WNW) 13:26:43 437.525
RS-15 17 Dec 13:21:34 13:33:06 50° 109° (ESE) 13:44:36 29.354- 29.394
UKube-1 17 Dec 13:26:23 13:29:26 19° 94° (E) 13:32:28 .
SO-50 17 Dec 13:27:55 13:30:17 14° 108° (ESE) 13:32:40 436.795
AO-91 17 Dec 13:33:59 13:38:22 33° 262° (W) 13:42:24 145.960
AO-7 17 Dec 13:35:23 13:42:44 37° 60° (ENE) 13:50:07 .
Gurwin Techsat 1B 17 Dec 13:39:45 13:44:51 47° 260° (W) 13:50:00 435.225
DX 1 17 Dec 13:47:50 13:52:07 56° 101° (E) 13:56:21 434.975-435.025
ITAMSAT 1 17 Dec 13:53:48 13:57:21 19° 63° (ENE) 14:00:53 435.822/435.867
NO-84 17 Dec 14:13:51 14:16:22 16° 235° (SW) 14:18:57 435.350 FM
Oscar 19 17 Dec 14:14:41 14:17:47 16° 268° (W) 14:20:54 437.125/150
50 SAT 17 Dec 14:19:48 14:22:45 38° 286° (WNW) 14:25:40 437.505
YUBILEINY 17 Dec 14:31:52 14:40:36 69° 268° (W) 14:49:14 435.215
M-CUBED/EXP-1 PRIME 17 Dec 14:35:30 14:39:50 72° 71° (ENE) 14:44:26 437.505
BEESAT 17 Dec 14:38:58 14:42:12 18° 94° (E) 14:45:25 436.000
ISS 17 Dec 14:48:56 14:50:01 11° 12° (NNE) 14:51:05 437.550
UKube-1 17 Dec 15:01:36 15:05:30 34° 290° (WNW) 15:09:24 .
SO-50 17 Dec 15:05:52 15:10:14 55° 305° (NW) 15:14:41 436.795
ITUPSAT 1 17 Dec 15:08:34 15:12:58 36° 98° (E) 15:17:21 437.325
DOVE 4 17 Dec 15:20:44 15:24:56 25° 68° (ENE) 15:29:01 437.250
CUBESAT XI-V 17 Dec 15:22:01 15:25:20 19° 93° (E) 15:28:36 437.345
DX 1 17 Dec 15:25:47 15:27:47 13° 297° (WNW) 15:29:47 434.975-435.025
MOZHAYETS 4 17 Dec 15:26:11 15:30:51 90° 104° (ESE) 15:35:29
AO-7 17 Dec 15:27:14 15:35:12 50° 258° (WSW) 15:43:15 .
nSIGHT-1 17 Dec 15:30:57 15:33:18 18° 24° (NNE) 15:35:37 .
ITAMSAT 1 17 Dec 15:31:17 15:36:22 53° 259° (W) 15:41:28 435.822/435.867
RS-15 17 Dec 15:33:36 15:45:34 53° 311° (NW) 15:57:26 29.354- 29.394
M-CUBED/EXP-1 PRIME 17 Dec 16:13:52 16:14:41 10° 267° (W) 16:15:31 437.505
BEESAT 17 Dec 16:15:38 16:20:09 44° 288° (WNW) 16:24:39 436.000
ISS 17 Dec 16:24:14 16:27:16 34° 31° (NNE) 16:30:18 437.550
XW-2C 17 Dec 16:31:11 16:33:42 17° 68° (ENE) 16:36:12 145.795 - 145.815
YUBILEINY 17 Dec 16:33:46 16:35:35 11° 287° (WNW) 16:37:24 435.215
HO-68 17 Dec 16:35:42 16:40:00 17° 55° (NE) 16:44:18 435.675
ITUPSAT 1 17 Dec 16:46:50 16:50:34 23° 293° (WNW) 16:54:17 437.325
KKS-1 17 Dec 16:52:35 16:56:27 29° 97° (E) 17:00:18 437.445
DOVE 4 17 Dec 16:57:29 17:02:22 38° 263° (W) 17:07:08 437.250
CUBESAT XI-V 17 Dec 16:58:24 17:02:50 41° 288° (WNW) 17:07:12 437.345
nSIGHT-1 17 Dec 17:06:34 17:09:46 68° 221° (SW) 17:12:57 .
NUDT-PHONESAT 17 Dec 17:10:20 17:13:38 32° 72° (ENE) 17:16:59 437.300
LilacSat-2 17 Dec 17:10:24 17:14:08 57° 75° (ENE) 17:17:56 437.200
PCSat 17 Dec 17:12:54 17:17:39 32° 109° (ESE) 17:22:26 145.827
KAITUO 1B 17 Dec 17:19:46 17:23:21 46° 74° (ENE) 17:26:59 145.475/437.950
XW-2D 17 Dec 17:20:06 17:23:52 73° 76° (ENE) 17:27:41 145.860 - 145.880
CUTE-I 17 Dec 17:20:15 17:25:31 59° 73° (ENE) 17:30:47 437.470
STARS 17 Dec 17:26:10 17:29:51 26° 96° (E) 17:33:31 437.465
O/OREOS (USA 219) 17 Dec 17:30:29 17:34:56 59° 66° (ENE) 17:39:19 437.305
XW-2B 17 Dec 17:36:08 17:39:53 72° 258° (WSW) 17:43:43 145.730 - 145.750
XW-2F 17 Dec 17:45:15 17:48:57 58° 259° (W) 17:52:43 145.980 - 146.000
SEEDS 17 Dec 17:46:30 17:49:38 20° 68° (ENE) 17:52:46 437.485
RS-15 17 Dec 17:52:59 18:01:51 22° 341° (NNW) 18:10:32 29.354- 29.394
UWE-3 17 Dec 17:56:33 17:58:41 14° 65° (ENE) 18:00:49 435.000/436.395/437.385
AAUSAT CUBESAT 2 17 Dec 17:57:11 17:58:23 11° 64° (ENE) 17:59:35 437.432
ISS 17 Dec 18:00:54 18:03:39 24° 227° (SW) 18:06:23 437.550
CUBEBUG 2 17 Dec 18:02:19 18:05:56 29° 71° (ENE) 18:09:32 437.445
XW-2C 17 Dec 18:04:15 18:07:36 30° 263° (W) 18:11:00 145.795 - 145.815
CUTE 1.7 + AOD 2 17 Dec 18:14:49 18:19:03 73° 76° (ENE) 18:23:19 437.475
ZACube-1 17 Dec 18:14:53 18:16:09 11° 64° (ENE) 18:17:25 437.345
HO-68 17 Dec 18:19:31 18:26:44 89° 68° (ENE) 18:33:58 435.675
XW-2A 17 Dec 18:26:47 18:29:13 19° 70° (ENE) 18:31:42 145.665 - 145.685
KKS-1 17 Dec 18:29:19 18:32:51 24° 292° (WNW) 18:36:22 437.445
STRAND 1 17 Dec 18:41:51 18:45:42 21° 94° (E) 18:49:31 437.568
AO-73 17 Dec 18:44:34 18:47:43 21° 68° (ENE) 18:50:53 145.935
NUDT-PHONESAT 17 Dec 18:45:30 18:47:34 14° 267° (W) 18:49:38 437.300
PCSat 17 Dec 18:56:04 19:00:58 34° 306° (NW) 19:05:54 145.827
KAITUO 1B 17 Dec 18:56:57 18:57:34 10° 269° (W) 18:58:10 145.475/437.950
STARS 17 Dec 19:02:30 19:06:05 26° 292° (WNW) 19:09:40 437.465
CUTE-I 17 Dec 19:02:38 19:05:55 16° 268° (W) 19:09:12 437.470
O/OREOS (USA 219) 17 Dec 19:12:12 19:13:45 12° 262° (W) 19:15:18 437.305
BEESAT 3 17 Dec 19:14:14 19:18:12 86° 125° (SE) 19:22:13 437.485
SEEDS 17 Dec 19:21:18 19:25:04 31° 263° (W) 19:28:53 437.485
FO-29 17 Dec 19:25:35 19:30:17 20° 89° (E) 19:34:36 435.910
AAUSAT CUBESAT 2 17 Dec 19:29:09 19:33:16 62° 259° (W) 19:37:26 437.432
UWE-3 17 Dec 19:30:46 19:34:44 45° 261° (W) 19:38:44 435.000/436.395/437.385
CUBEBUG 2 17 Dec 19:39:26 19:42:34 20° 266° (W) 19:45:40 437.445
ZACube-1 17 Dec 19:47:50 19:51:53 58° 260° (W) 19:55:59 437.345
FALCONSAT 3 17 Dec 19:50:40 19:52:37 14° 153° (SSE) 19:54:34 435.103
XW-2A 17 Dec 19:59:19 20:01:48 19° 265° (W) 20:04:18 145.665 - 145.685
DELFI C3 17 Dec 19:59:54 20:02:40 18° 68° (ENE) 20:05:26 145.870
Oscar 11 17 Dec 20:01:05 20:05:23 75° 258° (WSW) 20:09:44 .
BEESAT 2 17 Dec 20:02:32 20:06:32 77° 119° (ESE) 20:10:35 435.950
HO-68 17 Dec 20:11:29 20:15:16 15° 270° (W) 20:19:04 435.675
RS-15 17 Dec 20:11:53 20:20:36 22° 18° (NNE) 20:29:00 29.354- 29.394
AO-85 17 Dec 20:19:06 20:22:13 23° 112° (ESE) 20:25:25 145.980
STRAND 1 17 Dec 20:20:14 20:25:00 42° 290° (WNW) 20:29:47 437.568
AO-73 17 Dec 20:20:15 20:23:47 28° 264° (W) 20:27:22 145.935
BEESAT 3 17 Dec 20:55:12 20:56:18 11° 318° (NW) 20:57:24 437.485
Max Valier Satellite 17 Dec 20:59:33 21:03:09 62° 76° (ENE) 21:06:47 145.860
FO-29 17 Dec 21:09:21 21:15:55 58° 289° (WNW) 21:21:42 435.910
TIGRISAT 17 Dec 21:15:51 21:19:30 25° 96° (E) 21:23:12 435.000
EO-88 17 Dec 21:19:11 21:22:49 76° 77° (ENE) 21:26:28 145.990 - 145.960
UNISAT 6 17 Dec 21:19:55 21:23:50 31° 97° (E) 21:27:48 437.425
FALCONSAT 3 17 Dec 21:27:45 21:31:09 36° 167° (SSE) 21:34:34 435.103
DELFI C3 17 Dec 21:33:35 21:37:09 31° 263° (W) 21:40:44 145.870
LO-87 17 Dec 21:40:12 21:42:11 14° 68° (ENE) 21:44:09 145.935 - 145.965
BEESAT 2 17 Dec 21:43:05 21:44:45 12° 317° (NW) 21:46:25 435.950
AO-85 17 Dec 21:59:03 22:02:27 27° 310° (NW) 22:06:01 145.980
SO-50 17 Dec 21:59:05 22:01:24 13° 41° (NE) 22:03:45 436.795
RS-15 17 Dec 22:25:07 22:36:41 55° 49° (NE) 22:47:36 29.354- 29.394
PRISM 17 Dec 22:29:23 22:33:21 48° 100° (E) 22:37:16 437.425
SPROUT 17 Dec 22:37:00 22:39:05 14° 65° (ENE) 22:41:11 437.525
ESTCUBE 1 17 Dec 22:39:52 22:44:20 66° 75° (ENE) 22:48:51 437.505/2401.250
TIGRISAT 17 Dec 22:52:25 22:56:06 27° 290° (WNW) 22:59:50 435.000
UNISAT 6 17 Dec 22:56:57 23:00:21 22° 292° (WNW) 23:03:48 437.425
FALCONSAT 3 17 Dec 23:06:24 23:09:58 48° 183° (S) 23:13:32 435.103
LO-87 17 Dec 23:12:09 23:15:18 30° 263° (W) 23:18:27 145.935 - 145.965
POLYITAN 1 17 Dec 23:14:18 23:17:15 18° 94° (E) 23:20:12 437.675
AIST 2D 17 Dec 23:32:11 23:35:43 68° 284° (WNW) 23:39:13 435.315
SO-50 17 Dec 23:37:48 23:42:30 90° 11° (N) 23:47:16 436.795
DUCHIFAT 1 17 Dec 23:39:00 23:42:33 26° 96° (E) 23:46:06 145.980
QB50P2 17 Dec 23:39:30 23:43:30 40° 99° (E) 23:47:29 145.880/145.840
VELOX 1 17 Dec 23:57:26 00:01:50 66° 75° (ENE) 00:06:16 145.980
PRISM 18 Dec 00:06:15 00:08:10 13° 296° (WNW) 00:10:05 437.425
BUGSAT 1 18 Dec 00:07:03 00:08:20 11° 92° (E) 00:09:37 437.445
NANOSAT C BR1 18 Dec 00:07:05 00:11:16 67° 101° (E) 00:15:28 145.865
SPROUT 18 Dec 00:10:24 00:14:31 50° 260° (W) 00:18:40 437.525
UKube-1 18 Dec 00:20:18 00:22:44 15° 64° (ENE) 00:25:09 .
ESTCUBE 1 18 Dec 00:20:33 00:21:33 11° 270° (W) 00:22:33 437.505/2401.250
EO-79 18 Dec 00:24:56 00:29:07 65° 285° (WNW) 00:33:18 145.935-145.965
RS-15 18 Dec 00:38:08 00:48:49 45° 252° (WSW) 00:59:02 29.354- 29.394
DX 1 18 Dec 00:41:53 00:45:59 41° 72° (ENE) 00:50:07 434.975-435.025
50 SAT 18 Dec 00:44:02 00:46:58 37° 74° (ENE) 00:49:56 437.505
FALCONSAT 3 18 Dec 00:45:33 00:48:44 28° 198° (SSW) 00:51:54 435.103
Oscar 19 18 Dec 00:46:33 00:50:32 22° 94° (E) 00:54:28 437.125/150
POLYITAN 1 18 Dec 00:49:15 00:53:05 34° 289° (WNW) 00:56:56 437.675
DUCHIFAT 1 18 Dec 01:14:42 01:18:04 24° 291° (WNW) 01:21:26 145.980
QB50P2 18 Dec 01:16:15 01:18:56 17° 294° (WNW) 01:21:37 145.880/145.840
AO-91 18 Dec 01:24:53 01:28:09 43° 99° (E) 01:31:24 145.960
YUBILEINY 18 Dec 01:35:59 01:43:11 29° 83° (E) 01:50:26 435.215
VELOX 1 18 Dec 01:37:51 01:38:40 10° 270° (W) 01:39:30 145.980
BUGSAT 1 18 Dec 01:40:00 01:43:56 51° 286° (WNW) 01:47:54 437.445
BEESAT 18 Dec 01:44:22 01:47:41 19° 65° (ENE) 01:51:01 436.000
NANOSAT C BR1 18 Dec 01:45:39 01:46:23 10° 297° (WNW) 01:47:08 145.865
UKube-1 18 Dec 01:54:09 01:58:19 48° 260° (W) 02:02:31 .
Gurwin Techsat 1B 18 Dec 01:56:50 02:02:11 75° 103° (ESE) 02:07:29 435.225
PCSat 18 Dec 02:01:49 02:06:04 23° 49° (NE) 02:10:18 145.827
ITUPSAT 1 18 Dec 02:14:03 02:18:23 37° 70° (ENE) 02:22:44 437.325
DX 1 18 Dec 02:19:34 02:22:19 16° 267° (W) 02:25:05 434.975-435.025
CUBESAT XI-V 18 Dec 02:24:32 02:27:30 17° 65° (ENE) 02:30:29 437.345
Oscar 19 18 Dec 02:25:05 02:29:59 43° 290° (WNW) 02:34:52 437.125/150
MOZHAYETS 4 18 Dec 02:26:29 02:31:01 74° 75° (ENE) 02:35:35
BEESAT 18 Dec 03:20:36 03:25:07 43° 261° (W) 03:29:39 436.000
AO-7 18 Dec 03:29:39 03:37:57 61° 104° (ESE) 03:46:12 .
YUBILEINY 18 Dec 03:30:46 03:39:24 58° 282° (WNW) 03:48:07 435.215
BEESAT 3 18 Dec 03:32:03 03:35:36 32° 52° (NE) 03:39:05 437.485
Gurwin Techsat 1B 18 Dec 03:38:46 03:41:27 14° 299° (WNW) 03:44:07 435.225
PCSat 18 Dec 03:44:30 03:49:46 54° 247° (WSW) 03:55:01 145.827
ITAMSAT 1 18 Dec 03:45:09 03:50:16 59° 102° (ESE) 03:55:21 435.822/435.867
M-CUBED/EXP-1 PRIME 18 Dec 03:49:25 03:53:48 63° 105° (ESE) 03:57:52 437.505
KKS-1 18 Dec 03:49:32 03:53:09 25° 68° (ENE) 03:56:45 437.445
ITUPSAT 1 18 Dec 03:52:40 03:56:17 21° 265° (W) 03:59:54 437.325
JUGNU 18 Dec 03:58:56 04:00:23 11° 180° (S) 04:01:50 437.505
CUBESAT XI-V 18 Dec 03:59:57 04:04:26 48° 261° (W) 04:09:00 437.345
BEESAT 2 18 Dec 04:21:19 04:24:55 30° 52° (NE) 04:28:26 435.950
STARS 18 Dec 04:21:49 04:25:07 21° 67° (ENE) 04:28:26 437.465
AO-85 18 Dec 04:49:59 04:53:43 22° 48° (NE) 04:57:37 145.980
DOVE 4 18 Dec 04:57:38 05:02:00 65° 101° (E) 05:06:09 437.250
BEESAT 3 18 Dec 05:10:02 05:12:54 20° 249° (WSW) 05:15:43 437.485
XW-2B 18 Dec 05:11:17 05:13:00 13° 92° (E) 05:14:43 145.730 - 145.750
XW-2F 18 Dec 05:19:22 05:21:37 15° 93° (E) 05:23:52 145.980 - 146.000
AO-7 18 Dec 05:23:11 05:30:10 31° 302° (WNW) 05:37:09 .
M-CUBED/EXP-1 PRIME 18 Dec 05:25:32 05:27:31 13° 303° (WNW) 05:29:29 437.505
KKS-1 18 Dec 05:25:41 05:29:33 29° 263° (W) 05:33:26 437.445
ITAMSAT 1 18 Dec 05:25:58 05:29:13 17° 297° (WNW) 05:32:27 435.822/435.867
NO-84 18 Dec 05:26:43 05:29:36 68° 317° (NW) 05:32:42 435.350 FM
XW-2C 18 Dec 05:37:33 05:40:54 27° 96° (E) 05:44:12 145.795 - 145.815
FO-29 18 Dec 05:38:35 05:41:13 12° 53° (NE) 05:43:50 435.910
CUTE-I 18 Dec 05:39:03 05:43:25 26° 95° (E) 05:47:47 437.470
HO-68 18 Dec 05:50:22 05:54:54 18° 91° (E) 05:59:22 435.675
STRAND 1 18 Dec 05:56:28 06:00:45 28° 67° (ENE) 06:05:02 437.568
STARS 18 Dec 05:57:16 06:01:14 33° 262° (W) 06:05:12 437.465
BEESAT 2 18 Dec 05:59:19 06:02:27 22° 248° (WSW) 06:05:31 435.950
CUTE 1.7 + AOD 2 18 Dec 06:02:20 06:04:33 14° 91° (E) 06:06:45 437.475
NUDT-PHONESAT 18 Dec 06:14:32 06:18:13 53° 100° (E) 06:21:53 437.300
LilacSat-2 18 Dec 06:18:35 06:22:29 78° 285° (WNW) 06:26:20 437.200
KAITUO 1B 18 Dec 06:25:20 06:29:09 81° 100° (E) 06:32:55 145.475/437.950
XW-2D 18 Dec 06:27:31 06:31:20 62° 285° (WNW) 06:35:07 145.860 - 145.880
AO-85 18 Dec 06:29:37 06:34:23 53° 243° (WSW) 06:39:26 145.980
DOVE 4 18 Dec 06:38:00 06:39:01 11° 298° (WNW) 06:40:02 437.250
SRMSAT 18 Dec 06:41:33 06:43:24 11° 179° (S) 06:45:15 437.500
XW-2B 18 Dec 06:43:43 06:47:21 40° 286° (WNW) 06:50:56 145.730 - 145.750
XW-2F 18 Dec 06:52:20 06:55:48 33° 288° (WNW) 06:59:15 145.980 - 146.000
SEEDS 18 Dec 07:05:36 07:09:40 43° 98° (E) 07:13:41 437.485
NO-84 18 Dec 07:06:43 07:07:27 11° 338° (NNW) 07:08:11 435.350 FM
XW-2C 18 Dec 07:12:06 07:14:51 19° 291° (WNW) 07:17:35 145.795 - 145.815
AAUSAT CUBESAT 2 18 Dec 07:12:51 07:16:03 21° 94° (E) 07:19:14 437.432
FO-29 18 Dec 07:17:05 07:24:41 59° 71° (ENE) 07:32:18 435.910
CUTE-I 18 Dec 07:18:39 07:23:31 38° 291° (WNW) 07:28:22 437.470
UWE-3 18 Dec 07:20:49 07:24:52 36° 98° (E) 07:29:01 435.000/436.395/437.385
XW-2A 18 Dec 07:21:07 07:23:56 23° 96° (E) 07:26:43 145.665 - 145.685
CUBEBUG 2 18 Dec 07:29:23 07:33:43 84° 101° (E) 07:38:10 437.445
STRAND 1 18 Dec 07:35:12 07:39:46 33° 263° (W) 07:44:23 437.568
HO-68 18 Dec 07:36:07 07:43:17 78° 288° (WNW) 07:50:25 435.675
CUTE 1.7 + AOD 2 18 Dec 07:36:29 07:40:37 46° 286° (WNW) 07:44:41 437.475
ZACube-1 18 Dec 07:36:59 07:40:49 28° 96° (E) 07:44:41 437.345
O/OREOS (USA 219) 18 Dec 07:41:11 07:45:45 89° 120° (ESE) 07:50:21 437.305
Oscar 11 18 Dec 07:50:01 07:53:24 22° 94° (E) 07:56:45 .
AO-73 18 Dec 08:08:01 08:12:22 56° 100° (E) 08:16:46 145.935
TIGRISAT 18 Dec 08:14:01 08:17:00 19° 67° (ENE) 08:20:01 435.000
UNISAT 6 18 Dec 08:18:00 08:21:22 23° 69° (ENE) 08:24:44 437.425
SEEDS 18 Dec 08:42:29 08:44:57 15° 294° (WNW) 08:47:24 437.485
AAUSAT CUBESAT 2 18 Dec 08:47:55 08:51:28 28° 290° (WNW) 08:55:00 437.432
XW-2A 18 Dec 08:54:07 08:56:25 17° 291° (WNW) 08:58:43 145.665 - 145.685
UWE-3 18 Dec 08:57:56 09:01:04 20° 292° (WNW) 09:04:17 435.000/436.395/437.385
FO-29 18 Dec 09:03:26 09:09:57 29° 267° (W) 09:16:33 435.910
ISS 18 Dec 09:04:01 09:06:19 18° 131° (SE) 09:08:38 437.550
DELFI C3 18 Dec 09:11:07 09:14:40 31° 97° (E) 09:18:10 145.870
ZACube-1 18 Dec 09:13:22 09:16:57 25° 291° (WNW) 09:20:35 437.345
PRISM 18 Dec 09:17:15 09:20:51 29° 70° (ENE) 09:24:28 437.425
O/OREOS (USA 219) 18 Dec 09:25:26 09:25:50 10° 308° (NW) 09:26:13 437.305
Oscar 11 18 Dec 09:25:42 09:29:32 31° 290° (WNW) 09:33:21 .
HO-68 18 Dec 09:26:15 09:29:52 15° 306° (NW) 09:33:29 435.675
nSIGHT-1 18 Dec 09:42:24 09:45:35 65° 139° (SE) 09:48:47 .
AO-73 18 Dec 09:45:56 09:48:07 14° 295° (WNW) 09:50:18 145.935
TIGRISAT 18 Dec 09:49:34 09:53:27 34° 262° (W) 09:57:20 435.000
UNISAT 6 18 Dec 09:54:17 09:57:56 27° 264° (W) 10:01:37 437.425
Max Valier Satellite 18 Dec 10:03:50 10:07:35 78° 283° (WNW) 10:11:18 145.860
AIST 2D 18 Dec 10:04:54 10:08:01 31° 73° (ENE) 10:11:11 435.315
POLYITAN 1 18 Dec 10:06:57 10:08:40 12° 64° (ENE) 10:10:23 437.675
